Flag for U.S.A. Weather past 2 weeks in Brattleboro, Vermont, U.S.A.

Now
37 °F

Overcast.


Feels Like: 32 °F
Forecast: 30 / 38 °F
Wind: 7 mph from Northwest

Location: Keene / Dillant

Current Time: Dec 18, 2014 at 9:51:36 AM

Latest Report: Dec 18, 2014 at 9:35 AM


Visibility: 10 mi

Pressure: 29.81 "Hg

Humidity: 70%

Dew point: 28 °F

Location of BrattleboroLocation

Historic Weather in Brattleboro — Graph

°F

Brattleboro temperature yesterday

Maximum temperature yesterday: 41 °F (at 1:35 PM)
Minimum temperature yesterday: 34 °F (at 9:15 PM)
Average temperature yesterday: 37 °F

Past Weeks' High & Low Weather Summary

 TemperatureHumidityPressure
High41 °F (Dec 17, 1:35 PM)100% (Dec 3, 11:15 AM)30.76 "Hg (Dec 3, 11:15 AM)
Low10 °F (Dec 8, 3:55 AM)43% (Dec 7, 1:15 PM)29.45 "Hg (Dec 10, 8:35 PM)
Average31 °F83%30.05 "Hg
* Reported Dec 3 8:15 AM — Dec 18 8:35 AM, Brattleboro, Weather by CustomWeather, © 2014

Note: Actual official high and low records may vary slightly from our data, if they occured in-between our weather recording intervals... More about our weather records

Advertising

Brattleboro weather history for previous 24 hours

 ConditionsComfort  
Time TempWeatherWind HumidityBarometerVisibility
8:35 AM
Dec 18
34 °FOvercast.No wind87%29.80 "Hg10 mi
8:15 AM34 °FMostly cloudy.No wind87%29.78 "Hg10 mi
7:55 AM34 °FPartly sunny.No wind87%29.78 "Hg10 mi
7:35 AM34 °FPartly sunny.3 mph87%29.77 "Hg10 mi
7:15 AM34 °FPartly sunny.3 mph87%29.77 "Hg10 mi
6:55 AM34 °FPassing clouds.No wind87%29.76 "Hg10 mi
6:35 AM34 °FPassing clouds.No wind87%29.76 "Hg10 mi
6:15 AM34 °FOvercast.No wind87%29.75 "Hg10 mi
5:55 AM34 °FOvercast.3 mph93%29.75 "Hg10 mi
5:35 AM34 °FMostly cloudy.3 mph93%29.75 "Hg9 mi
5:15 AM34 °FMostly cloudy.No wind93%29.74 "Hg4 mi
4:55 AM34 °FMostly cloudy.No wind87%29.74 "Hg4 mi
4:35 AM34 °FMostly cloudy.No wind93%29.74 "Hg6 mi
4:15 AM34 °FOvercast.No wind87%29.73 "Hg5 mi
3:55 AM34 °FMostly cloudy.No wind93%29.73 "Hg10 mi
3:35 AM34 °FPassing clouds.No wind93%29.74 "Hg9 mi
3:15 AM34 °FPassing clouds.No wind93%29.74 "Hg10 mi
2:55 AM34 °FClear.No wind93%29.74 "Hg10 mi
2:35 AM34 °FPassing clouds.3 mph93%29.74 "Hg8 mi
2:15 AM34 °FMostly cloudy.5 mph87%29.74 "Hg6 mi
1:55 AM34 °FMostly cloudy.5 mph93%29.73 "Hg8 mi
1:35 AM34 °FMostly cloudy.No wind93%29.73 "Hg9 mi
12:55 AM34 °FMostly cloudy.No wind93%29.73 "Hg10 mi
12:35 AM34 °FOvercast.5 mph93%29.74 "Hg10 mi
12:15 AM36 °FPassing clouds.No wind81%29.74 "Hg10 mi
11:55 PM
Dec 17
36 °FPassing clouds.No wind93%29.74 "Hg10 mi
11:35 PM36 °FPassing clouds.No wind87%29.75 "Hg10 mi
11:15 PM36 °FPassing clouds.3 mph93%29.75 "Hg10 mi
10:35 PM34 °FOvercast.6 mph100%29.76 "Hg6 mi
10:15 PM34 °FMostly cloudy.3 mph100%29.77 "Hg8 mi
9:55 PM34 °FPassing clouds.5 mph100%29.77 "Hg10 mi
9:35 PM34 °FPassing clouds.3 mph100%29.76 "Hg9 mi
9:15 PM34 °FPassing clouds.No wind93%29.76 "Hg10 mi
8:55 PM36 °FPassing clouds.No wind93%29.75 "Hg10 mi
8:35 PM36 °FPassing clouds.No wind100%29.75 "Hg9 mi
8:15 PM37 °FOvercast.5 mph93%29.76 "Hg10 mi
7:55 PM37 °FOvercast.5 mph93%29.76 "Hg10 mi
7:35 PM37 °FMostly cloudy.3 mph93%29.76 "Hg10 mi
6:55 PM37 °FOvercast.3 mph93%29.76 "Hg7 mi
6:35 PM37 °FMostly cloudy.No wind93%29.76 "Hg10 mi
6:15 PM39 °FMostly cloudy.6 mph93%29.75 "Hg10 mi
5:35 PM37 °FOvercast.No wind100%29.75 "Hg8 mi
5:15 PM37 °FOvercast.No wind100%29.74 "Hg10 mi
4:55 PM37 °FOvercast.3 mph93%29.74 "Hg10 mi
4:35 PM39 °FOvercast.No wind93%29.74 "Hg7 mi
4:15 PM39 °FOvercast.No wind93%29.74 "Hg10 mi
3:55 PM39 °FOvercast.No wind100%29.73 "Hg10 mi
3:35 PM39 °FMostly cloudy.No wind100%29.73 "Hg10 mi
3:15 PM41 °FOvercast.No wind93%29.73 "Hg10 mi
2:55 PM41 °FMore clouds than sun.No wind93%29.73 "Hg10 mi
2:35 PM41 °FMore clouds than sun.No wind87%29.73 "Hg10 mi
2:15 PM41 °FMostly cloudy.No wind87%29.73 "Hg10 mi
1:55 PM41 °FOvercast.No wind93%29.73 "Hg10 mi
1:35 PM41 °FLow clouds.No wind93%29.73 "Hg10 mi
1:15 PM39 °FMostly cloudy.3 mph93%29.73 "Hg10 mi
12:55 PM39 °FLow clouds.No wind93%29.73 "Hg10 mi
12:35 PM39 °FMostly cloudy.3 mph93%29.74 "Hg10 mi
12:15 PM39 °FCloudy.5 mph93%29.74 "Hg10 mi
11:55 AM39 °FLow clouds.3 mph93%29.75 "Hg10 mi
11:35 AM37 °FOvercast.5 mph100%29.76 "Hg10 mi
11:15 AM37 °FLow clouds.No wind93%29.76 "Hg10 mi
10:55 AM37 °FCloudy.3 mph93%29.77 "Hg10 mi
10:35 AM37 °FCloudy.No wind93%29.78 "Hg10 mi
10:15 AM37 °FMostly cloudy.No wind93%29.80 "Hg6 mi
9:55 AM36 °FMostly cloudy.No wind100%29.80 "Hg2 mi
9:35 AM36 °FMore clouds than sun.No wind100%29.80 "Hg2 mi
9:15 AM36 °FLow clouds.No wind100%29.80 "Hg1 mi
Weather by CustomWeather, © 2014

See weather overviewHow to use our weather pages